Terminal Aerodrome Forecast
Issued by NWS

Home | Current Version | Previous Version | Text Only | Print | Product List | Glossary On
Versions: 1 2 3 4 5 6 7 8 9 10 11 12 13 14
000
FTUS46 KPDT 250500
TAFDLS
TAF
KDLS 250525Z 2506/2606 29009KT P6SM SKC
     FM251900 31012G18KT P6SM SKC=

USA.gov is the U.S. government's official web portal to all federal, state and local government web resources and services.